Showing default

COSMOS 2268, 22999

Orbit data source: Space-Track

COSMOS 2268, 22999 is a payload satellite owned by VKS (CIS) in LEO that was launched on Sat, 12 Feb 1994 UTC via a TSIKLON-3 launch vehicle from the Plesetsk Missile And Space Complex (PKMTR). Payload-class satellites include a variety of spacecraft equipped with specific instruments for various scientific and technological missions. These include communications satellites like Starlink; space stations such as the ISS; scientific satellites like the Hubble; Earth observation satellites from companies like Planet Labs, Umbra, and HawkEye 360; GPS; miniature CubeSats for education and research; and military/defense satellites.

Loading next visibility...
Identifier
22999, 1994-011A
Orbit
LEO
Country
Flag of CISCIS
Related business
Manufacturer
NPO PM
Mission
Defense Communications
Bus & Motor
STRELA-3, Unknown motor
Mass
225 kg wet, 225 kg dry
Launch date (UTC)
1994-02-12 (32 years ago)
Launch vehicle
TSIKLON-3
Launch site
Plesetsk Missile And Space Complex (PKMTR)
Object type
Payload
Rocket body
Debris
Shape & HBR
Cyl, 0.8 m
Radar Cross Section
1.257 m², Medium (>0.1 m² and < 1m²)

Expand to show TLE details & history
Last TLE update: 3 hours ago

TLE from 3 hours ago
0 COSMOS 2268
1 22999U 94011A   26127.90047175  .00000020  00000-0  55331-4 0  9990
2 22999  82.5802   6.1813 0009418 297.1664  73.2094 12.61227209483680
Epoch: 2026-05-07T21:36Z
TLE epoch observation values (Epoch: 2026-05-07T21:36:40.759Z)
Latitude
10.34122°
Longitude
177.62644°
Altitude
1,417.755 km
Speed
7.154 km/s
True Right ascension
00h 30m 08s
True Declination
10° 17' 09"
Sunlit
Object was in daylight at epoch
Visualization orbit readout
Latitude
Unknown
Longitude
Unknown
Altitude
Unknown
Speed
Unknown
Apparent Right ascension
Unknown
Apparent Declination
Unknown
Sunlit
N/A
Visualization observer readout
Local Sidereal Time
09:08:57
Azimuth
Unknown
Elevation
Unknown
Doppler factor
Unknown
Orbital elements
Apogee altitude
1,422.545 km
Perigee altitude
1,407.866 km
Semi-major axis
7,793.342 km
Eccentricity
0.00094
Inclination
82.5802°
RAAN
6.1813°
Arg. of periapsis
297.1664°
True anomaly
73.31276°
Mean anomaly
73.2094°
Eccentric anomaly
73.26107°
Mean motion
3.1547 °/min
Orbital period
114.12 mins
BSTAR
0.000055331
Loading maneuver chart data...
Computing Atmospheric mass density...
Loading historical data...
Loading historical data...
Loading historical data...
Loading historical data...
Loading historical data...
Loading historical data...
Loading historical data...

Documentation

Showing up to 5 results
|